Truckee-Tahoe, CA

8:32 AM PDT on April 24, 2018 (GMT -0700)
Truckee-Tahoe

Weather History for KTRK - October, 2011

Change the Weather History Date:

Saturday, October 1, 2011

  Actual Average Record
Temperature  
Mean Temperature 60 °F -  
Max Temperature 68 °F 70 °F 84 °F (1987)
Min Temperature 51 °F 33 °F 15 °F (1971)
Degree Days  
Heating Degree Days 6    
Growing Degree Days 10 (Base 50)    
Moisture  
Dew Point 35 °F    
Average Humidity 44    
Maximum Humidity 62    
Minimum Humidity 22    
Precipitation  
Precipitation 0.00 in - - ()
Sea Level Pressure  
Sea Level Pressure 30.10 in    
Wind  
Wind Speed 11 mph (SW)    
Max Wind Speed 22 mph    
Max Gust Speed 32 mph    
Visibility 10 miles    
Events      
Averages and records for this station are not official NWS values.
T = Trace of Precipitation, MM = Missing Value Source: NWS Daily Summary

Daily Weather History Graph

Daily Weather History Graph

Search for Another Location

Airport or City:

Astronomy

Oct. 01, 2011 Rise Set
Actual Time 6:56 AM PDT 6:43 PM PDT
Civil Twilight 6:29 AM PDT 7:10 PM PDT
Nautical Twilight 5:58 AM PDT 7:41 PM PDT
Astronomical Twilight 5:27 AM PDT 8:12 PM PDT
Moon 12:05 PM PDT (10/1) 9:47 PM PDT (10/1)
Length of Visible Light 12h 40m
Length of Day
11h 46m
Waxing Crescent, 25% of the Moon is Illuminated
Oct 1
Waxing Crescent
Oct 3
First Quarter
Oct 11
Full
Oct 19
Last Quarter
Oct 26
New

Hourly Weather History & Observations

Time (PDT) Temp. Dew Point Humidity Pressure Visibility Wind Dir Wind Speed Gust Speed Precip Events Conditions
12:15 AM 55.4 °F 35.6 °F 47% 30.10 in 10.0 mi West 6.9 mph - N/A   Clear
12:35 AM 55.4 °F 35.6 °F 47% 30.10 in 10.0 mi WSW 9.2 mph - N/A   Clear
12:55 AM 57.2 °F 35.6 °F 44% 30.10 in 10.0 mi NW 8.1 mph - N/A   Clear
1:15 AM 53.6 °F 37.4 °F 54% 30.10 in 10.0 mi WNW 5.8 mph - N/A   Clear
1:35 AM 55.4 °F 37.4 °F 51% 30.10 in 10.0 mi WNW 5.8 mph - N/A   Clear
1:55 AM 55.4 °F 35.6 °F 47% 30.09 in 10.0 mi WNW 8.1 mph - N/A   Clear
2:15 AM 53.6 °F 35.6 °F 51% 30.09 in 10.0 mi West 8.1 mph - N/A   Clear
2:35 AM 57.2 °F 35.6 °F 44% 30.08 in 10.0 mi SW 12.7 mph 19.6 mph N/A   Clear
2:55 AM 55.4 °F 35.6 °F 47% 30.08 in 10.0 mi WSW 11.5 mph - N/A   Clear
3:15 AM 55.4 °F 35.6 °F 47% 30.08 in 10.0 mi SW 6.9 mph - N/A   Clear
3:35 AM 55.4 °F 33.8 °F 44% 30.08 in 10.0 mi SSW 13.8 mph 17.3 mph N/A   Clear
3:55 AM 57.2 °F 33.8 °F 41% 30.08 in 10.0 mi SW 13.8 mph 19.6 mph N/A   Clear
4:15 AM 57.2 °F 35.6 °F 44% 30.08 in 10.0 mi WSW 11.5 mph 18.4 mph N/A   Clear
4:35 AM 57.2 °F 35.6 °F 44% 30.08 in 10.0 mi SW 10.4 mph 19.6 mph N/A   Clear
4:55 AM 57.2 °F 35.6 °F 44% 30.08 in 10.0 mi SW 13.8 mph 23.0 mph N/A   Clear
5:15 AM 57.2 °F 35.6 °F 44% 30.08 in 10.0 mi SW 13.8 mph - N/A   Clear
5:35 AM 57.2 °F 37.4 °F 48% 30.08 in 10.0 mi SSW 17.3 mph 23.0 mph N/A   Clear
5:55 AM 57.2 °F 35.6 °F 44% 30.08 in 10.0 mi WSW 12.7 mph 26.5 mph N/A   Clear
6:15 AM 55.4 °F 37.4 °F 51% 30.08 in 10.0 mi SW 10.4 mph 19.6 mph N/A   Clear
6:35 AM 55.4 °F 37.4 °F 51% 30.08 in 10.0 mi SW 10.4 mph 18.4 mph N/A   Clear
6:50 AM 55.4 °F 37.4 °F 51% 30.08 in 10.0 mi SW 15.0 mph 20.7 mph N/A   Scattered Clouds
7:50 AM 57.2 °F 35.6 °F 44% 30.10 in 10.0 mi SW 11.5 mph 24.2 mph N/A   Scattered Clouds
9:45 AM 62.6 °F 28.4 °F 27% 30.12 in 10.0 mi SSW 18.4 mph 28.8 mph N/A   Partly Cloudy
10:50 AM 64.4 °F 24.8 °F 22% 30.13 in 10.0 mi SSW 21.9 mph 32.2 mph N/A   Scattered Clouds
11:45 AM 66.2 °F 28.4 °F 24% 30.13 in 10.0 mi SSW 21.9 mph 29.9 mph N/A   Scattered Clouds
12:45 PM 68.0 °F 32.0 °F 26% 30.12 in 10.0 mi SW 17.3 mph 31.1 mph N/A   Scattered Clouds
1:45 PM 68.0 °F 35.6 °F 30% 30.11 in 10.0 mi SW 16.1 mph 25.3 mph N/A   Scattered Clouds
2:50 PM 68.0 °F 35.6 °F 30% 30.11 in 10.0 mi SW 17.3 mph 26.5 mph N/A   Scattered Clouds
3:45 PM 66.2 °F 35.6 °F 32% 30.11 in 10.0 mi WSW 15.0 mph 26.5 mph N/A   Scattered Clouds
4:45 PM 64.4 °F 32.0 °F 30% 30.10 in 10.0 mi SSW 19.6 mph 27.6 mph N/A   Scattered Clouds
5:50 PM 62.6 °F 32.0 °F 32% 30.10 in 10.0 mi SSW 13.8 mph 19.6 mph N/A   Scattered Clouds
5:55 PM 62.6 °F 32.0 °F 32% 30.10 in 10.0 mi SW 12.7 mph 20.7 mph N/A   Clear
6:15 PM 59.0 °F 32.0 °F 36% 30.10 in 10.0 mi SSW 11.5 mph 18.4 mph N/A   Clear
6:35 PM 57.2 °F 32.0 °F 38% 30.10 in 10.0 mi WSW 6.9 mph - N/A   Clear
6:55 PM 55.4 °F 33.8 °F 44% 30.10 in 10.0 mi SW 9.2 mph - N/A   Clear
7:15 PM 55.4 °F 35.6 °F 47% 30.10 in 10.0 mi WSW 11.5 mph - N/A   Clear
7:35 PM 55.4 °F 35.6 °F 47% 30.11 in 10.0 mi WSW 15.0 mph - N/A   Clear
7:55 PM 53.6 °F 35.6 °F 51% 30.12 in 10.0 mi WSW 10.4 mph - N/A   Clear
8:15 PM 53.6 °F 37.4 °F 54% 30.12 in 10.0 mi WSW 13.8 mph 18.4 mph N/A   Clear
8:35 PM 53.6 °F 37.4 °F 54% 30.12 in 10.0 mi SW 10.4 mph - N/A   Clear
9:15 PM 51.8 °F 39.2 °F 62% 30.13 in 10.0 mi SW 10.4 mph - N/A   Clear
9:35 PM 51.8 °F 39.2 °F 62% 30.13 in 10.0 mi WSW 12.7 mph 17.3 mph N/A   Clear
9:55 PM 51.8 °F 37.4 °F 58% 30.13 in 10.0 mi SW 12.7 mph 18.4 mph N/A   Clear
10:15 PM 51.8 °F 37.4 °F 58% 30.13 in 10.0 mi SW 11.5 mph 20.7 mph N/A   Clear
10:35 PM 51.8 °F 35.6 °F 54% 30.13 in 9.0 mi SW 13.8 mph 18.4 mph N/A   Clear
10:55 PM 51.8 °F 33.8 °F 50% 30.13 in 10.0 mi SW 13.8 mph 17.3 mph N/A   Clear
11:15 PM 53.6 °F 32.0 °F 44% 30.13 in 10.0 mi SW 16.1 mph 21.9 mph N/A   Clear
11:35 PM 53.6 °F 32.0 °F 44% 30.13 in 10.0 mi SW 19.6 mph 27.6 mph N/A   Clear
11:55 PM 53.6 °F 32.0 °F 44% 30.14 in 10.0 mi SW 20.7 mph 27.6 mph N/A   Clear